Vorticity
6 6 6 7 7 8 8 8 7 7 6 5 4 3 3 3 2 2 2 2 2 2 3 3 4 5 6 8 9 11 13 15 17 19 21 22 23 24 25 26 27 27 28 28 27 27 26 25 24 23 23 22 21 20 20 19 19 18 18 18 17 17 17 17 16 16 16 16 15 15 14 14 14 14 14 13 12 12 12 12 13 13 13 13 13 13
6 6 7 8 8 8 8 7 7 6 5 4 3 3 2 2 2 2 2 2 3 3 3 4 5 6 8 10 12 13 15 18 20 22 24 26 26 27 27 28 28 28 28 27 26 24 23 22 21 20 19 18 18 17 17 16 16 16 16 15 15 15 14 14 14 14 13 13 13 12 12 12 12 12 11 10 11 11 12 12 13 13 13 13 13 13
6 7 8 8 8 8 7 6 6 5 4 3 3 2 2 2 2 2 2 2 3 4 5 5 6 8 10 12 14 17 19 22 24 26 28 28 29 28 28 28 27 26 25 24 22 21 19 18 18 17 16 16 16 15 15 15 15 14 14 14 14 13 13 13 13 13 12 12 12 12 12 12 12 12 11 11 12 13 14 14 15 15 15 16 16 16
7 7 8 8 8 8 7 5 4 4 3 3 2 2 2 2 2 2 2 3 3 4 6 7 9 11 13 15 18 21 23 25 27 29 29 29 29 28 27 26 24 23 21 20 18 17 16 16 15 15 15 14 14 14 14 14 14 14 14 13 13 13 13 13 13 13 13 13 13 14 14 14 14 14 14 15 16 16 17 18 19 20 20 21 21 21
8 8 7 7 7 7 6 5 4 3 2 2 2 1 1 2 2 2 2 4 5 6 7 9 12 14 17 19 21 24 26 28 29 30 29 28 27 25 24 22 21 19 18 16 15 15 14 14 14 14 14 14 14 14 14 14 14 14 14 14 14 14 15 15 16 16 17 17 18 18 18 18 19 19 20 20 21 21 22 22 23 24 24 24 25 25
8 8 7 7 7 6 4 4 3 2 2 2 1 1 1 2 2 2 3 5 6 8 10 13 16 18 20 22 24 26 28 29 29 28 28 26 24 22 21 19 18 16 15 14 14 13 13 14 14 14 15 15 15 15 15 15 15 15 15 16 16 17 18 19 20 21 22 22 23 23 24 24 24 25 25 26 26 26 26 26 26 25 25 25 25 24
8 8 7 7 6 5 4 3 2 2 1 1 1 1 2 2 3 4 5 6 7 9 12 16 19 21 23 24 25 26 27 28 28 27 25 24 22 20 18 17 16 14 14 13 13 14 14 14 15 15 16 16 16 16 16 16 17 17 18 19 20 21 22 24 24 25 26 27 27 28 28 28 28 28 28 28 28 27 27 26 25 24 24 23 23 23
7 7 7 6 5 4 3 3 2 2 1 1 1 1 1 3 4 6 7 8 9 12 14 17 20 23 25 25 25 26 27 28 27 26 23 21 19 17 16 15 14 14 14 14 14 15 16 16 17 17 18 18 18 18 18 19 20 21 22 23 24 25 27 27 28 28 29 29 29 29 28 28 27 27 26 26 25 25 24 23 22 22 21 21 21 21
7 6 6 5 4 3 3 2 2 2 1 1 1 2 2 2 4 6 7 10 13 15 17 18 21 23 24 25 26 27 28 28 26 24 21 18 17 15 15 14 14 15 16 16 17 18 18 19 19 20 20 20 20 20 21 22 23 24 26 27 27 28 28 28 28 28 28 27 27 26 26 25 24 23 22 22 21 21 20 20 20 19 19 19 19 20
7 6 4 4 4 3 2 2 2 1 1 2 2 3 3 3 3 4 7 11 14 18 20 22 23 23 23 25 27 28 27 26 24 22 18 16 15 15 15 16 17 18 18 19 20 20 21 21 22 22 22 22 22 23 24 25 26 27 27 28 28 27 27 27 26 25 24 24 23 22 21 21 20 20 19 19 18 18 18 18 18 18 18 18 18 18
6 6 4 4 3 3 2 1 1 1 1 1 2 3 5 6 6 6 7 11 15 19 24 26 26 25 23 25 28 29 27 24 21 19 17 16 16 17 18 19 19 20 21 21 22 22 23 23 23 23 23 23 24 25 26 27 27 27 27 26 25 25 24 23 22 21 20 19 19 18 18 17 17 16 16 16 16 15 15 15 15 15 15 15 16 16
5 4 4 3 2 2 2 1 1 1 1 2 2 3 5 8 9 10 11 13 17 21 25 27 29 30 28 26 26 26 25 22 19 17 17 17 18 19 20 21 22 22 23 23 24 24 24 24 24 24 24 25 25 26 26 26 25 25 24 23 22 21 20 19 18 17 16 16 15 15 15 14 14 13 13 13 13 12 12 12 12 12 12 12 13 13
5 4 3 2 2 1 1 1 1 1 2 3 4 5 6 7 10 13 17 19 23 25 25 26 29 32 32 28 25 23 22 21 19 18 18 19 20 22 23 23 23 24 24 24 25 25 25 24 24 24 24 25 25 25 24 23 22 21 20 19 18 17 16 15 15 14 14 13 13 12 12 11 11 10 10 10 9 9 9 9 9 9 9 9 10 10
4 3 2 2 1 1 1 1 1 2 2 4 5 7 7 8 11 16 20 24 27 28 27 27 28 28 29 27 25 22 21 21 20 21 21 22 22 23 24 24 24 24 25 25 25 25 24 24 24 24 24 24 23 22 21 20 19 18 17 16 15 14 13 13 12 12 11 11 10 9 9 8 8 8 7 7 7 7 7 7 7 7 7 7 7 8
2 2 2 1 1 1 1 1 2 2 3 5 6 8 10 13 16 20 23 25 26 26 28 29 28 27 27 24 23 22 22 22 22 23 23 23 23 24 24 24 24 25 25 24 24 23 22 22 22 22 21 21 20 19 18 17 16 15 14 13 13 12 11 11 10 9 9 8 8 7 7 7 7 7 7 7 7 7 7 7 7 7 7 7 7 7
2 2 1 1 1 1 2 2 2 3 4 5 8 11 14 16 19 23 26 26 24 24 27 27 27 27 28 25 24 23 24 24 24 24 23 23 23 24 24 24 24 24 24 23 22 21 20 21 20 19 18 18 17 16 15 14 14 13 12 11 10 10 9 8 8 7 7 7 7 8 8 9 9 10 11 11 12 12 12 12 12 12 11 10 10 9
2 2 1 1 1 2 2 2 3 4 5 7 10 15 18 19 20 22 27 26 26 27 29 28 27 26 24 25 25 25 25 24 24 23 23 22 23 23 23 23 22 22 21 20 19 18 18 18 17 17 16 16 15 14 14 13 12 11 10 9 9 8 8 7 8 8 9 10 11 12 14 15 16 18 19 20 20 21 21 21 21 20 19 18 16 15
2 2 1 2 2 2 2 3 4 5 6 10 14 17 20 22 23 24 27 27 28 28 29 30 30 28 25 25 25 25 25 23 22 22 22 22 22 21 21 21 20 19 18 17 17 17 17 16 16 15 15 15 14 13 12 11 10 9 8 8 8 8 8 9 11 13 15 17 19 21 22 24 25 26 27 28 28 29 29 29 29 28 28 27 25 24
2 1 1 2 2 2 3 3 4 6 9 13 16 18 20 23 26 28 30 30 30 30 28 29 28 28 27 25 24 23 23 21 20 20 20 20 20 19 19 19 18 17 16 16 16 16 16 16 16 15 15 14 13 11 10 9 8 8 8 8 9 11 13 16 18 21 23 25 27 28 28 29 29 29 30 30 30 30 31 31 31 32 32 32 31 30
1 2 2 2 2 3 4 5 6 9 12 15 17 19 22 23 26 29 32 32 32 31 30 29 27 26 25 23 22 21 21 19 19 20 20 19 18 18 17 17 17 16 16 16 16 16 16 16 15 14 13 12 10 9 8 8 8 9 10 12 15 18 21 24 26 28 29 29 29 28 28 27 27 26 26 26 26 26 26 26 27 27 28 29 29 30
2 2 2 2 3 4 5 6 8 11 14 16 19 23 26 25 27 30 32 31 31 30 30 28 26 24 22 20 20 19 18 17 18 18 17 18 18 18 16 17 16 16 16 16 15 15 15 15 14 12 11 10 9 8 8 9 11 13 16 20 23 26 28 29 29 28 28 26 25 24 23 22 22 21 20 20 19 19 19 18 19 19 19 20 22 23
2 2 3 3 4 5 6 7 10 13 16 20 23 26 26 27 29 32 32 32 31 30 28 26 23 20 18 18 18 18 17 17 17 17 16 17 18 17 16 16 17 17 16 15 14 14 14 13 12 10 9 8 8 9 11 14 17 21 25 28 29 30 29 28 26 24 23 22 21 20 19 18 16 15 14 13 13 13 12 12 12 12 12 13 14 15
2 2 3 4 5 6 7 9 12 16 20 24 27 29 29 30 32 32 33 33 32 29 26 22 19 17 17 18 18 18 18 18 18 18 18 18 17 16 15 16 17 17 16 14 13 12 12 11 10 8 8 9 11 13 17 21 25 28 31 30 29 27 24 22 21 19 18 17 16 15 13 12 11 10 9 9 9 9 9 9 9 9 10 10 10 11
2 3 4 4 6 7 9 12 16 19 23 27 29 31 32 35 36 35 34 32 29 25 21 18 16 16 18 18 18 18 18 18 18 18 19 18 17 16 15 15 16 16 15 13 11 10 10 9 9 9 10 13 17 21 25 29 31 31 30 27 24 21 19 17 16 15 14 13 11 10 9 8 7 6 6 6 7 7 8 8 8 9 9 10 10 10
3 4 4 5 7 9 12 16 20 22 24 27 30 32 34 36 35 34 31 27 24 20 17 16 16 17 17 17 18 18 18 17 17 18 18 17 16 15 14 14 14 14 13 11 10 9 9 10 11 13 16 20 24 28 32 32 31 28 24 21 18 15 14 13 12 11 10 9 8 7 6 6 5 6 6 6 7 7 8 8 9 9 9 10 10 10
4 4 5 7 9 12 15 20 23 26 27 28 31 33 34 33 32 30 28 24 20 17 15 15 17 17 16 17 18 18 16 16 17 17 16 15 15 14 13 13 13 12 11 10 9 9 10 13 16 19 24 28 31 33 33 30 26 21 17 14 12 11 10 10 9 9 8 7 6 6 6 6 6 7 7 7 8 8 9 9 9 9 9 9 10 10
4 6 7 9 11 14 19 23 26 27 28 30 32 34 34 31 29 27 25 21 17 15 14 15 16 17 17 18 18 17 15 15 16 16 15 14 14 13 12 11 11 11 11 10 10 12 14 18 22 27 31 33 33 32 28 23 18 14 11 9 9 9 9 9 8 8 7 7 7 7 7 7 8 8 8 8 8 9 9 10 10 10 10 9 9 10
6 7 9 11 14 17 21 25 27 28 28 31 33 35 34 29 27 25 22 17 14 14 16 16 17 17 17 17 16 15 14 14 14 13 12 13 14 13 10 10 10 11 12 12 14 17 22 27 30 32 35 33 30 25 20 15 11 9 7 8 8 8 8 8 8 7 7 7 8 8 8 9 9 9 9 9 9 10 10 11 11 10 10 10 10 10
7 8 11 13 17 20 24 27 28 29 30 32 33 34 33 28 25 22 17 14 14 15 17 18 18 18 17 16 14 13 14 15 13 11 10 12 14 13 10 11 12 13 15 16 20 26 34 36 36 35 33 28 22 17 12 9 8 7 7 8 8 8 8 8 8 8 8 8 8 9 9 9 10 10 10 10 11 11 12 12 12 11 11 11 10 10
8 10 13 16 20 23 26 28 29 30 32 33 34 32 30 25 21 18 14 14 15 17 17 18 18 17 15 13 12 13 15 14 12 9 9 12 13 12 10 13 16 18 19 21 26 32 39 39 36 32 27 19 14 10 8 7 7 7 7 7 7 7 7 7 7 8 8 9 9 9 9 9 10 10 10 11 12 13 14 14 13 13 12 11 11 11
9 11 15 18 21 24 27 29 30 31 33 34 33 30 25 21 18 16 15 16 17 18 17 17 16 14 13 11 11 11 12 11 10 9 10 13 13 12 12 17 20 24 27 29 32 35 35 32 28 23 17 11 8 7 7 7 7 7 7 6 6 6 5 6 6 7 7 8 8 9 9 9 9 10 10 11 12 14 15 15 14 14 13 12 12 12
10 14 17 20 22 25 28 30 31 32 34 34 31 27 22 18 16 16 17 18 19 18 16 15 13 12 11 10 11 11 10 9 9 9 12 15 15 16 19 23 27 31 34 38 40 39 33 26 19 12 8 6 6 6 6 7 7 6 6 5 4 3 3 3 3 4 5 6 7 8 9 9 9 10 10 11 12 13 14 15 15 14 13 12 12 12
12 16 20 22 25 28 30 30 32 33 34 32 28 23 19 17 17 18 19 19 18 16 14 12 10 10 9 10 11 12 12 11 11 11 14 17 19 21 25 31 35 37 37 40 41 38 30 20 12 7 5 5 6 6 6 6 6 6 5 3 2 1 1 0 1 1 3 5 6 8 9 9 10 10 11 11 12 13 14 14 15 15 14 13 12 13
15 18 22 24 27 29 31 32 32 33 33 29 25 20 17 17 18 19 20 18 16 14 11 10 8 8 8 9 11 13 14 14 14 15 18 22 25 28 32 38 40 40 38 35 31 25 18 10 6 5 6 6 6 6 6 6 6 5 3 1 0 0 0 -0 -0 1 2 4 5 7 9 10 10 11 11 12 12 13 13 14 14 15 14 13 13 13
17 21 25 26 28 29 30 32 32 32 31 27 22 19 17 18 19 19 18 15 13 10 9 9 8 8 8 9 10 12 15 15 16 19 23 27 31 34 39 42 42 39 35 28 20 13 7 4 4 4 5 6 6 5 4 4 4 3 1 -0 -1 -0 0 0 1 1 2 3 5 6 8 9 10 11 11 12 12 12 12 13 13 14 14 13 13 13
20 24 27 28 28 29 30 31 31 30 28 24 21 19 18 19 19 18 15 12 9 7 7 8 9 10 12 13 13 14 15 16 19 24 29 33 36 39 43 41 38 34 28 19 12 6 2 3 4 4 4 5 5 5 4 3 1 -0 -1 -2 -1 -1 0 1 1 2 3 4 5 6 7 8 9 10 10 11 11 12 13 13 13 14 14 14 14 13
22 26 28 29 29 29 30 30 30 29 26 22 20 19 19 19 17 15 11 8 7 6 7 8 9 11 13 16 18 19 19 21 25 30 35 38 40 42 43 37 32 26 19 10 5 2 1 3 4 4 4 3 3 4 5 4 1 -1 -2 -2 -1 0 1 1 2 3 4 5 7 8 9 9 9 9 10 10 11 11 12 13 14 15 16 16 15 15
25 27 28 29 29 29 29 30 29 27 24 21 20 19 19 17 14 11 8 6 6 6 7 8 10 12 14 17 20 23 25 28 32 36 39 40 41 41 39 30 23 16 10 5 2 0 1 2 3 3 3 2 2 2 3 4 2 1 -0 0 0 1 1 2 3 3 4 6 8 10 11 10 10 9 9 10 10 10 10 11 12 14 16 17 17 17
27 28 28 28 29 29 29 29 28 26 23 21 20 19 18 15 11 8 5 5 5 6 7 9 11 13 16 19 22 26 29 33 36 38 40 39 38 36 31 22 14 8 3 1 -0 -0 1 2 3 2 2 2 1 1 1 1 1 1 2 2 2 1 2 3 4 4 5 6 9 11 13 12 12 11 10 10 10 9 9 9 11 12 14 16 17 17
27 29 30 29 29 29 29 28 26 24 22 20 19 18 15 12 8 5 4 5 6 7 9 11 13 16 19 23 26 30 34 37 38 39 39 37 34 29 22 14 8 3 0 -0 -0 0 1 3 3 3 3 2 1 1 0 -0 0 1 2 3 3 3 4 4 4 4 5 6 8 11 13 14 13 12 11 12 11 10 9 10 10 11 13 15 17 18
27 29 30 29 29 29 30 27 25 22 21 20 18 16 12 8 5 4 4 5 7 8 10 13 17 20 24 28 32 34 37 38 38 38 36 32 27 21 14 8 4 1 -0 0 1 2 2 3 4 4 3 3 2 1 1 1 2 3 3 3 4 5 5 5 5 5 5 5 6 9 12 14 14 13 12 12 11 10 10 10 10 11 13 13 15 16
29 30 29 27 28 29 28 26 24 22 21 20 17 14 9 6 4 3 4 5 7 9 12 16 19 23 27 31 34 38 39 38 36 34 31 26 20 14 9 4 1 -0 -1 0 2 3 4 4 5 4 4 4 3 3 2 3 4 5 5 5 6 6 5 4 4 4 5 5 6 8 10 12 13 13 13 12 11 11 10 9 10 11 13 14 15 15
30 30 28 28 28 27 26 25 24 23 21 19 15 11 7 4 3 4 4 6 8 11 14 19 23 26 28 31 34 38 40 37 33 30 25 20 15 10 5 3 1 -0 -1 0 1 3 4 5 5 5 4 4 4 4 4 4 5 5 5 6 7 7 5 5 5 4 4 4 5 7 8 10 11 12 12 11 10 10 10 9 10 11 13 15 16 16
29 29 29 28 27 27 26 25 24 23 20 17 13 9 5 3 3 4 5 8 10 13 17 22 26 30 33 34 35 36 36 32 29 25 20 15 11 7 4 2 1 0 -1 0 1 2 3 4 4 4 5 5 4 4 4 4 4 4 4 5 5 5 4 7 7 6 4 4 5 6 7 9 10 11 11 10 9 9 9 10 11 12 14 16 17 17
27 28 29 28 27 27 27 26 24 22 19 15 11 7 4 3 3 4 6 8 12 16 21 24 28 32 35 36 36 34 31 27 23 19 15 11 8 6 4 2 1 0 0 0 1 2 3 3 4 4 5 5 5 5 4 4 4 4 4 4 4 3 4 5 6 5 5 5 5 6 7 9 10 11 11 10 9 9 9 11 13 14 16 17 18 18
28 28 28 28 27 27 27 25 23 21 18 13 9 5 3 2 3 5 7 10 14 19 23 27 31 34 36 35 33 31 28 23 18 15 11 7 5 4 3 3 2 1 1 1 1 2 3 4 4 5 5 5 5 5 4 4 4 4 4 4 4 4 4 4 4 4 5 5 6 6 8 9 10 11 11 10 9 9 9 12 14 16 17 18 18 19
28 28 28 27 27 27 26 25 23 20 16 11 7 4 2 2 3 5 8 12 17 21 25 30 34 36 36 34 31 28 23 18 14 10 8 7 5 4 3 2 2 2 2 2 2 3 4 5 6 6 6 5 4 4 3 3 3 3 4 4 4 5 5 4 4 5 5 5 6 7 9 10 11 11 11 11 10 9 9 12 15 17 19 19 19 20
27 27 27 26 26 26 26 24 22 19 14 10 6 3 2 2 4 6 9 14 19 24 28 32 34 36 35 32 29 25 20 15 11 8 6 6 5 5 4 3 3 2 3 3 3 4 5 6 6 6 6 5 4 3 2 2 2 3 3 4 5 5 5 5 5 5 5 5 6 7 10 11 12 12 12 12 11 10 10 13 16 18 20 19 19 20
28 27 26 26 26 26 25 24 21 17 13 8 5 3 2 3 4 7 10 15 21 26 31 33 34 34 33 29 25 20 16 12 9 7 6 6 5 4 4 4 4 4 4 4 4 4 5 5 6 6 5 4 3 2 2 2 2 3 3 4 5 5 5 5 5 4 5 5 7 8 10 12 13 14 13 13 12 11 11 14 17 20 21 19 18 19
29 28 26 26 26 26 25 23 20 16 11 7 4 2 2 3 5 8 12 18 23 29 33 34 34 33 31 26 20 16 12 9 7 7 6 6 5 4 4 4 4 4 4 4 4 4 5 5 5 5 5 4 3 3 2 2 2 3 3 4 5 6 6 5 5 5 5 6 8 10 12 14 15 15 15 14 13 13 12 15 19 22 22 19 17 18
29 28 26 26 26 26 25 23 19 15 10 6 4 2 2 3 6 9 14 20 26 31 34 34 34 32 28 22 17 13 9 7 7 6 6 5 5 5 4 4 4 5 5 4 4 5 5 5 5 5 5 4 3 3 3 3 3 4 4 5 6 6 6 6 5 6 7 9 11 13 15 16 17 17 17 16 15 14 14 17 21 24 23 18 16 16
Height
5649 5646 5642 5639 5636 5632 5628 5625 5622 5619 5615 5611 5607 5603 5599 5595 5590 5586 5582 5577 5572 5567 5562 5557 5552 5546 5541 5535 5530 5524 5518 5513 5508 5503 5498 5493 5488 5483 5478 5474 5470 5466 5463 5459 5456 5453 5450 5447 5444 5442 5439 5436 5434 5431 5428 5426 5424 5421 5419 5417 5414 5412 5410 5408 5406 5403 5401 5399 5397 5396 5394 5393 5391 5389 5388 5386 5384 5383 5383 5381 5380 5378 5377 5376 5375 5374
5645 5641 5638 5635 5633 5629 5624 5620 5617 5615 5612 5608 5603 5599 5595 5590 5586 5581 5576 5571 5566 5560 5555 5550 5545 5539 5533 5528 5523 5518 5512 5506 5501 5496 5492 5487 5481 5476 5471 5467 5463 5459 5456 5453 5450 5447 5444 5442 5439 5437 5434 5432 5429 5427 5424 5422 5419 5417 5414 5412 5410 5408 5405 5403 5401 5399 5397 5395 5393 5391 5389 5388 5386 5384 5383 5381 5379 5378 5378 5377 5375 5374 5373 5372 5370 5369
5642 5638 5635 5632 5629 5625 5622 5617 5613 5610 5607 5603 5599 5595 5591 5586 5581 5576 5571 5566 5560 5554 5549 5544 5538 5533 5527 5521 5516 5511 5506 5500 5495 5490 5485 5480 5475 5470 5465 5461 5457 5454 5451 5448 5445 5442 5440 5437 5435 5433 5430 5428 5425 5423 5420 5418 5415 5413 5410 5408 5405 5403 5401 5398 5397 5394 5393 5390 5388 5386 5385 5383 5381 5380 5378 5376 5374 5374 5373 5372 5371 5370 5368 5367 5366 5365
5640 5636 5632 5628 5625 5621 5618 5614 5610 5606 5602 5599 5595 5591 5586 5581 5576 5571 5566 5561 5555 5549 5543 5538 5532 5526 5520 5514 5508 5503 5499 5494 5488 5483 5478 5473 5469 5464 5460 5456 5453 5449 5446 5443 5441 5438 5435 5433 5431 5428 5426 5423 5421 5418 5416 5413 5411 5408 5405 5403 5401 5398 5396 5394 5392 5390 5388 5386 5384 5382 5381 5379 5377 5375 5373 5372 5370 5369 5368 5367 5366 5365 5364 5363 5361 5360
5636 5633 5629 5626 5622 5618 5614 5610 5606 5602 5598 5594 5590 5586 5581 5577 5571 5566 5560 5554 5549 5543 5537 5531 5526 5520 5514 5508 5502 5496 5492 5488 5483 5478 5473 5468 5464 5460 5456 5452 5449 5446 5443 5439 5437 5434 5431 5429 5426 5424 5421 5419 5416 5414 5411 5408 5406 5403 5401 5398 5396 5394 5392 5390 5388 5386 5384 5382 5380 5378 5377 5375 5373 5371 5369 5368 5366 5365 5364 5363 5361 5360 5359 5358 5357 5355
5633 5630 5627 5623 5619 5615 5611 5607 5603 5598 5594 5589 5585 5581 5577 5572 5567 5561 5555 5549 5543 5536 5530 5524 5519 5514 5508 5503 5497 5491 5486 5482 5478 5474 5469 5464 5460 5456 5452 5448 5445 5442 5438 5436 5433 5430 5427 5425 5422 5419 5417 5414 5412 5409 5407 5404 5401 5399 5396 5394 5392 5389 5387 5385 5383 5382 5380 5378 5376 5374 5373 5370 5369 5367 5366 5364 5363 5362 5360 5358 5357 5356 5355 5354 5353 5351
5629 5626 5623 5620 5616 5612 5608 5604 5600 5596 5591 5586 5581 5576 5571 5566 5561 5556 5551 5545 5538 5532 5525 5518 5512 5506 5502 5498 5493 5487 5482 5477 5473 5468 5464 5460 5456 5453 5449 5445 5442 5438 5435 5432 5429 5426 5423 5421 5418 5416 5413 5410 5408 5405 5402 5399 5397 5394 5392 5390 5388 5385 5383 5381 5379 5378 5376 5374 5372 5370 5368 5367 5365 5363 5362 5361 5359 5358 5357 5355 5354 5353 5352 5350 5349 5348
5626 5623 5619 5616 5613 5608 5603 5599 5595 5592 5587 5582 5578 5573 5567 5560 5554 5548 5544 5539 5534 5528 5521 5514 5507 5500 5494 5491 5488 5484 5478 5473 5468 5463 5459 5455 5451 5448 5445 5442 5438 5435 5432 5428 5425 5423 5420 5417 5414 5412 5409 5406 5403 5400 5398 5395 5393 5390 5388 5386 5384 5382 5380 5378 5376 5374 5372 5370 5368 5367 5365 5363 5362 5360 5359 5357 5356 5355 5353 5352 5351 5350 5348 5347 5346 5345
5624 5620 5616 5612 5609 5606 5601 5596 5590 5586 5582 5578 5573 5569 5564 5558 5551 5543 5537 5532 5527 5523 5518 5512 5505 5498 5491 5485 5481 5478 5475 5469 5463 5459 5455 5451 5447 5444 5441 5438 5435 5431 5428 5425 5422 5419 5416 5413 5410 5408 5405 5402 5399 5396 5393 5391 5389 5387 5385 5383 5381 5378 5376 5374 5373 5371 5369 5367 5365 5364 5362 5361 5359 5358 5356 5355 5353 5352 5351 5350 5348 5347 5346 5344 5343 5342
5620 5617 5613 5608 5604 5601 5598 5593 5588 5583 5578 5573 5567 5563 5559 5555 5550 5543 5534 5527 5521 5515 5510 5506 5501 5496 5489 5482 5476 5472 5469 5464 5459 5454 5450 5447 5443 5440 5437 5433 5430 5427 5424 5421 5418 5415 5412 5409 5407 5403 5400 5397 5395 5392 5390 5388 5386 5383 5382 5379 5378 5375 5373 5372 5370 5368 5366 5365 5363 5362 5360 5358 5357 5356 5354 5353 5352 5350 5349 5348 5346 5345 5344 5343 5341 5340
5616 5612 5608 5604 5600 5596 5593 5589 5585 5580 5576 5570 5563 5557 5551 5547 5543 5538 5532 5524 5517 5511 5504 5498 5493 5488 5485 5479 5473 5468 5463 5460 5455 5450 5445 5442 5439 5436 5433 5429 5426 5423 5420 5417 5414 5411 5408 5405 5403 5399 5396 5394 5391 5389 5387 5385 5383 5381 5379 5377 5375 5373 5371 5369 5368 5366 5364 5363 5361 5360 5358 5357 5355 5354 5353 5351 5350 5348 5347 5346 5345 5343 5342 5341 5339 5338
5612 5608 5605 5601 5597 5593 5589 5584 5579 5575 5571 5566 5560 5553 5545 5539 5534 5529 5524 5518 5513 5507 5501 5493 5486 5480 5477 5473 5468 5464 5459 5455 5451 5446 5441 5438 5434 5431 5428 5425 5422 5419 5416 5413 5410 5408 5405 5402 5399 5396 5393 5391 5389 5387 5385 5383 5380 5378 5377 5375 5373 5371 5369 5368 5366 5364 5363 5361 5360 5358 5357 5355 5354 5352 5351 5350 5348 5347 5346 5344 5343 5342 5340 5339 5338 5337
5609 5605 5602 5598 5594 5590 5586 5581 5576 5570 5565 5561 5555 5549 5542 5535 5529 5523 5518 5511 5505 5500 5495 5489 5482 5475 5470 5466 5462 5458 5454 5450 5447 5442 5438 5434 5431 5428 5425 5421 5418 5415 5413 5410 5407 5404 5402 5398 5396 5393 5391 5389 5387 5385 5383 5380 5378 5377 5375 5373 5371 5369 5368 5366 5364 5363 5361 5360 5358 5357 5355 5354 5352 5351 5349 5348 5347 5345 5344 5343 5341 5340 5339 5338 5336 5335
5606 5602 5598 5594 5590 5586 5582 5577 5572 5566 5560 5555 5550 5543 5537 5530 5523 5517 5512 5505 5498 5493 5488 5483 5477 5471 5466 5462 5458 5454 5450 5445 5442 5438 5433 5430 5427 5425 5422 5418 5415 5413 5410 5407 5404 5402 5399 5396 5393 5391 5389 5387 5385 5383 5381 5379 5377 5375 5373 5371 5370 5368 5366 5365 5363 5361 5360 5358 5357 5355 5354 5352 5351 5349 5348 5346 5345 5343 5342 5341 5339 5338 5337 5336 5334 5333
5603 5599 5595 5590 5586 5581 5577 5573 5567 5561 5555 5549 5543 5537 5531 5523 5516 5510 5504 5499 5493 5488 5483 5478 5472 5466 5460 5457 5454 5452 5447 5442 5438 5434 5430 5426 5423 5421 5419 5415 5412 5409 5407 5404 5402 5399 5397 5394 5392 5390 5388 5385 5383 5381 5379 5378 5376 5374 5372 5370 5368 5367 5365 5363 5362 5360 5358 5357 5355 5353 5352 5350 5349 5347 5346 5344 5343 5341 5340 5338 5337 5336 5334 5333 5332 5331
5600 5596 5591 5586 5581 5577 5572 5568 5563 5557 5551 5544 5538 5532 5525 5518 5512 5505 5498 5493 5488 5482 5478 5473 5469 5464 5458 5452 5448 5447 5444 5439 5435 5431 5428 5424 5420 5418 5416 5413 5410 5407 5405 5402 5400 5397 5395 5393 5390 5388 5386 5384 5382 5380 5378 5376 5374 5373 5371 5369 5367 5365 5363 5362 5360 5358 5357 5355 5353 5352 5350 5348 5347 5345 5343 5342 5340 5339 5338 5336 5335 5334 5332 5331 5330 5329
5596 5592 5587 5582 5577 5572 5568 5563 5557 5552 5546 5539 5533 5526 5519 5513 5506 5500 5494 5488 5482 5477 5472 5468 5464 5461 5457 5450 5445 5442 5440 5436 5432 5428 5425 5422 5418 5416 5413 5411 5408 5405 5403 5400 5398 5395 5393 5391 5389 5387 5385 5383 5381 5379 5377 5375 5373 5371 5369 5368 5366 5364 5362 5360 5358 5357 5355 5353 5351 5350 5348 5346 5345 5343 5341 5340 5338 5337 5335 5334 5333 5331 5330 5329 5328 5327
5592 5588 5583 5578 5573 5568 5563 5558 5553 5547 5540 5534 5527 5520 5513 5506 5500 5494 5488 5483 5477 5472 5468 5463 5458 5455 5453 5448 5443 5439 5437 5433 5430 5426 5423 5419 5416 5414 5411 5408 5406 5403 5401 5398 5396 5394 5392 5390 5388 5385 5383 5382 5379 5378 5376 5374 5372 5370 5368 5366 5364 5363 5361 5359 5357 5355 5353 5351 5349 5348 5346 5344 5343 5341 5340 5338 5337 5335 5333 5332 5331 5329 5328 5327 5326 5325
5588 5583 5579 5574 5568 5562 5557 5553 5548 5543 5536 5529 5523 5515 5508 5502 5495 5489 5483 5478 5472 5467 5463 5459 5455 5451 5448 5444 5441 5437 5434 5431 5427 5424 5421 5418 5414 5412 5409 5407 5404 5401 5399 5397 5395 5392 5390 5388 5386 5384 5382 5380 5378 5376 5374 5372 5370 5368 5367 5364 5363 5361 5359 5357 5355 5353 5352 5350 5348 5347 5345 5343 5342 5340 5339 5337 5336 5334 5333 5331 5329 5328 5327 5325 5324 5323
5583 5579 5575 5570 5564 5558 5552 5547 5542 5537 5531 5524 5517 5510 5503 5497 5491 5485 5479 5474 5469 5463 5459 5455 5451 5448 5444 5441 5438 5434 5431 5428 5425 5422 5419 5416 5413 5410 5408 5405 5403 5400 5398 5395 5393 5391 5389 5387 5385 5383 5381 5379 5377 5375 5373 5371 5369 5367 5365 5363 5361 5359 5357 5356 5354 5352 5351 5349 5348 5346 5344 5343 5341 5340 5338 5337 5335 5333 5332 5330 5329 5328 5326 5324 5323 5322
5579 5574 5569 5564 5559 5554 5548 5542 5536 5531 5525 5519 5512 5504 5498 5491 5485 5479 5474 5469 5464 5459 5455 5451 5448 5444 5442 5438 5435 5432 5429 5426 5423 5420 5417 5414 5411 5409 5406 5403 5401 5398 5396 5394 5392 5389 5388 5385 5383 5381 5379 5378 5375 5373 5371 5369 5367 5365 5363 5362 5360 5358 5356 5355 5353 5352 5350 5349 5347 5346 5344 5343 5341 5340 5338 5337 5335 5333 5332 5330 5329 5327 5326 5324 5323 5321
5576 5571 5565 5559 5553 5548 5543 5537 5531 5525 5519 5513 5507 5500 5494 5488 5482 5476 5470 5465 5460 5456 5452 5448 5445 5442 5440 5437 5433 5430 5427 5424 5421 5418 5415 5412 5409 5407 5404 5402 5399 5397 5395 5392 5390 5388 5386 5384 5382 5380 5378 5376 5374 5372 5370 5368 5366 5364 5362 5361 5359 5357 5356 5354 5353 5352 5350 5349 5347 5346 5344 5343 5341 5340 5338 5337 5335 5334 5332 5330 5329 5327 5326 5324 5323 5321
5572 5566 5560 5554 5548 5543 5537 5531 5525 5519 5513 5507 5501 5495 5489 5483 5478 5473 5468 5463 5458 5453 5450 5446 5442 5439 5436 5434 5431 5428 5425 5422 5419 5416 5413 5410 5408 5405 5403 5400 5398 5396 5393 5391 5389 5387 5385 5383 5381 5379 5377 5374 5373 5370 5368 5367 5365 5363 5362 5360 5358 5357 5356 5354 5353 5352 5350 5349 5348 5346 5345 5343 5342 5340 5338 5337 5335 5334 5332 5330 5329 5327 5325 5324 5322 5321
5567 5562 5556 5550 5544 5538 5532 5525 5519 5513 5507 5501 5495 5488 5483 5477 5473 5468 5464 5460 5455 5451 5447 5443 5440 5436 5433 5430 5428 5425 5422 5419 5417 5414 5411 5408 5406 5404 5402 5399 5397 5394 5392 5390 5388 5385 5383 5382 5379 5377 5375 5373 5371 5369 5368 5366 5364 5363 5361 5360 5358 5357 5356 5355 5353 5352 5351 5349 5348 5346 5345 5343 5342 5340 5338 5337 5335 5333 5332 5330 5328 5327 5325 5324 5322 5321
5563 5558 5552 5545 5539 5533 5527 5520 5514 5507 5501 5496 5490 5484 5478 5472 5467 5463 5459 5455 5451 5448 5443 5440 5437 5434 5431 5428 5425 5422 5419 5417 5414 5412 5409 5407 5404 5402 5400 5398 5396 5393 5391 5388 5386 5384 5382 5380 5378 5376 5374 5372 5370 5368 5367 5365 5364 5363 5361 5360 5359 5358 5357 5355 5354 5353 5351 5350 5348 5347 5345 5343 5342 5340 5338 5337 5335 5333 5332 5330 5328 5327 5325 5323 5322 5320
5558 5553 5547 5541 5535 5528 5522 5515 5508 5502 5496 5490 5485 5479 5474 5469 5463 5459 5455 5452 5448 5445 5441 5438 5434 5431 5428 5426 5423 5420 5417 5415 5412 5410 5408 5405 5403 5400 5398 5396 5394 5392 5390 5387 5385 5383 5381 5378 5377 5374 5373 5371 5369 5368 5367 5365 5364 5363 5362 5361 5360 5358 5357 5356 5354 5353 5352 5350 5348 5347 5345 5344 5342 5340 5339 5337 5335 5333 5332 5330 5328 5327 5325 5323 5321 5320
5554 5548 5542 5536 5530 5523 5517 5511 5504 5497 5491 5486 5480 5475 5471 5466 5461 5457 5453 5449 5447 5443 5440 5436 5433 5429 5426 5423 5421 5419 5416 5413 5411 5408 5406 5404 5402 5399 5397 5394 5393 5391 5389 5386 5384 5382 5379 5378 5375 5373 5372 5370 5369 5368 5367 5366 5365 5363 5363 5362 5360 5359 5358 5356 5355 5353 5352 5350 5349 5347 5346 5344 5342 5340 5338 5337 5335 5333 5332 5330 5328 5326 5324 5323 5321 5319
5550 5544 5538 5531 5525 5519 5513 5506 5500 5493 5488 5482 5477 5472 5468 5464 5460 5455 5451 5448 5444 5441 5438 5435 5432 5429 5425 5422 5420 5418 5415 5412 5409 5407 5405 5403 5400 5398 5395 5393 5391 5389 5387 5385 5383 5380 5378 5376 5374 5373 5371 5370 5369 5368 5367 5366 5365 5364 5363 5362 5361 5359 5358 5357 5355 5354 5352 5351 5349 5347 5346 5344 5342 5340 5338 5337 5335 5333 5331 5330 5328 5326 5324 5322 5320 5318
5546 5539 5533 5527 5520 5514 5509 5503 5496 5490 5484 5479 5474 5469 5465 5462 5458 5454 5450 5447 5443 5440 5436 5433 5431 5428 5425 5421 5418 5416 5414 5411 5408 5406 5403 5401 5398 5396 5394 5392 5389 5387 5385 5383 5381 5379 5378 5376 5374 5373 5372 5370 5369 5369 5368 5367 5366 5365 5364 5363 5361 5360 5358 5357 5355 5354 5352 5351 5349 5347 5345 5343 5342 5340 5338 5336 5334 5333 5331 5329 5328 5326 5324 5322 5320 5318
5541 5534 5528 5521 5515 5509 5504 5498 5493 5487 5481 5476 5472 5467 5463 5459 5456 5453 5449 5445 5442 5438 5435 5432 5429 5427 5424 5421 5417 5414 5412 5409 5407 5404 5402 5399 5397 5395 5393 5390 5388 5385 5383 5381 5379 5378 5376 5375 5374 5373 5372 5371 5370 5369 5368 5368 5366 5365 5364 5363 5361 5360 5358 5357 5356 5354 5352 5351 5349 5347 5345 5343 5341 5339 5338 5336 5334 5333 5331 5329 5328 5326 5324 5322 5320 5318
5537 5531 5524 5518 5511 5505 5500 5494 5489 5483 5478 5473 5469 5465 5461 5457 5454 5450 5447 5443 5440 5437 5434 5431 5428 5426 5423 5420 5417 5414 5410 5408 5406 5403 5401 5398 5396 5393 5392 5389 5386 5384 5382 5380 5378 5377 5376 5375 5374 5373 5373 5372 5371 5370 5369 5368 5367 5365 5364 5363 5362 5360 5359 5357 5356 5354 5352 5351 5349 5347 5345 5343 5341 5339 5338 5336 5334 5332 5330 5329 5327 5325 5323 5322 5320 5318
5534 5528 5522 5515 5508 5502 5497 5491 5486 5480 5475 5471 5467 5463 5459 5456 5452 5449 5445 5442 5439 5436 5433 5430 5427 5424 5422 5419 5417 5414 5411 5408 5404 5402 5399 5397 5394 5392 5390 5388 5385 5383 5381 5380 5378 5378 5376 5375 5375 5374 5373 5373 5372 5371 5369 5368 5367 5366 5364 5363 5362 5360 5359 5357 5356 5354 5352 5351 5349 5347 5345 5343 5341 5339 5337 5335 5333 5332 5330 5328 5326 5325 5323 5321 5319 5318
5531 5524 5518 5511 5505 5499 5493 5488 5483 5478 5473 5469 5465 5461 5457 5454 5451 5447 5444 5441 5438 5435 5432 5429 5426 5423 5420 5417 5415 5412 5410 5407 5403 5400 5398 5395 5393 5390 5388 5386 5384 5382 5381 5379 5379 5378 5377 5376 5376 5375 5374 5373 5372 5371 5370 5369 5368 5366 5365 5363 5362 5360 5359 5357 5356 5354 5353 5351 5349 5347 5345 5343 5341 5339 5337 5335 5333 5331 5329 5327 5326 5324 5322 5320 5319 5317
5527 5520 5514 5508 5501 5495 5490 5485 5480 5475 5471 5467 5463 5459 5455 5452 5449 5446 5443 5439 5437 5434 5431 5428 5425 5422 5419 5415 5413 5410 5408 5405 5402 5399 5396 5394 5391 5389 5387 5385 5383 5382 5381 5380 5379 5378 5378 5377 5377 5376 5375 5374 5373 5372 5371 5369 5368 5367 5365 5364 5362 5361 5359 5358 5356 5354 5353 5351 5349 5347 5345 5343 5341 5339 5337 5335 5333 5331 5328 5327 5325 5323 5321 5319 5318 5316
5522 5516 5509 5503 5498 5492 5487 5482 5477 5473 5468 5464 5461 5458 5454 5451 5448 5444 5442 5438 5436 5433 5430 5427 5425 5422 5419 5415 5412 5408 5406 5403 5400 5398 5395 5392 5390 5388 5386 5385 5383 5382 5381 5381 5380 5379 5379 5378 5378 5377 5376 5375 5374 5373 5372 5370 5368 5367 5366 5364 5363 5361 5359 5358 5356 5354 5353 5351 5349 5347 5345 5343 5341 5339 5336 5334 5332 5330 5328 5326 5324 5322 5320 5318 5317 5315
5518 5512 5506 5500 5495 5489 5484 5479 5475 5470 5466 5463 5459 5456 5453 5450 5447 5443 5441 5438 5435 5432 5429 5426 5423 5420 5418 5415 5411 5408 5405 5402 5399 5396 5393 5391 5389 5387 5386 5385 5384 5383 5382 5382 5381 5380 5380 5379 5378 5378 5377 5375 5374 5373 5372 5370 5369 5367 5366 5364 5363 5361 5359 5358 5356 5354 5353 5351 5349 5347 5345 5343 5340 5338 5336 5333 5331 5329 5327 5324 5323 5321 5319 5317 5316 5314
5514 5508 5502 5497 5492 5487 5482 5477 5473 5468 5465 5461 5458 5454 5451 5448 5445 5443 5440 5437 5434 5431 5428 5425 5422 5419 5416 5413 5410 5407 5404 5401 5398 5395 5393 5390 5389 5387 5386 5385 5385 5384 5383 5383 5382 5382 5381 5380 5379 5378 5377 5376 5375 5373 5372 5371 5369 5368 5366 5365 5363 5362 5360 5358 5356 5354 5353 5350 5348 5346 5344 5342 5340 5338 5335 5333 5331 5328 5326 5324 5322 5320 5318 5316 5314 5313
5511 5505 5499 5494 5488 5484 5479 5474 5470 5466 5463 5459 5456 5453 5450 5447 5444 5442 5439 5436 5433 5430 5427 5423 5420 5417 5414 5411 5408 5405 5402 5399 5397 5394 5392 5390 5389 5388 5387 5386 5386 5385 5384 5384 5383 5383 5382 5381 5379 5378 5378 5376 5375 5374 5373 5371 5370 5368 5367 5365 5363 5362 5360 5358 5356 5354 5352 5350 5348 5346 5343 5342 5339 5337 5335 5333 5330 5328 5326 5324 5321 5319 5317 5315 5313 5312
5508 5502 5497 5491 5486 5482 5477 5473 5468 5465 5461 5458 5455 5452 5449 5447 5444 5441 5439 5436 5433 5430 5426 5423 5420 5417 5413 5410 5407 5404 5401 5399 5396 5394 5392 5391 5389 5388 5388 5388 5387 5386 5385 5385 5384 5383 5383 5381 5380 5379 5378 5377 5376 5374 5373 5372 5370 5369 5367 5365 5364 5362 5360 5358 5356 5354 5352 5350 5348 5345 5343 5340 5338 5336 5334 5332 5330 5328 5326 5323 5322 5319 5317 5315 5313 5311
5505 5499 5494 5489 5484 5480 5475 5471 5467 5463 5460 5457 5454 5451 5448 5446 5443 5441 5438 5435 5432 5429 5426 5423 5419 5416 5413 5409 5406 5403 5401 5398 5396 5394 5393 5392 5390 5390 5389 5388 5388 5387 5387 5386 5385 5384 5383 5382 5381 5380 5379 5378 5376 5375 5373 5372 5371 5370 5368 5366 5364 5362 5360 5358 5356 5354 5352 5349 5347 5344 5342 5339 5337 5335 5333 5331 5329 5327 5325 5323 5321 5319 5317 5315 5313 5311
5503 5497 5492 5486 5482 5477 5473 5469 5466 5462 5459 5456 5453 5450 5448 5445 5442 5439 5437 5434 5431 5428 5425 5421 5418 5414 5411 5408 5406 5403 5400 5398 5397 5395 5394 5393 5392 5391 5390 5389 5389 5388 5388 5387 5386 5385 5384 5383 5382 5381 5379 5378 5377 5375 5374 5373 5372 5370 5368 5366 5364 5363 5360 5358 5356 5353 5351 5349 5346 5343 5341 5338 5336 5333 5331 5329 5327 5325 5323 5322 5320 5318 5316 5314 5312 5310
5500 5495 5490 5484 5480 5475 5471 5468 5464 5461 5458 5455 5453 5450 5447 5445 5442 5439 5436 5433 5430 5427 5423 5420 5417 5413 5410 5407 5405 5403 5401 5399 5397 5396 5395 5394 5393 5392 5391 5391 5390 5389 5388 5387 5386 5385 5384 5383 5383 5381 5380 5379 5377 5376 5374 5373 5372 5370 5368 5366 5365 5363 5360 5358 5356 5353 5351 5348 5345 5343 5340 5337 5335 5332 5330 5328 5326 5324 5322 5320 5318 5317 5315 5313 5311 5309
5497 5492 5487 5483 5478 5474 5470 5467 5463 5460 5457 5454 5452 5449 5447 5444 5441 5438 5436 5433 5429 5426 5423 5419 5416 5413 5410 5408 5405 5403 5401 5399 5398 5397 5396 5395 5394 5393 5393 5392 5391 5390 5389 5388 5387 5386 5385 5384 5383 5382 5381 5379 5378 5376 5374 5373 5371 5370 5368 5366 5364 5362 5360 5358 5355 5353 5350 5348 5345 5342 5339 5337 5334 5331 5328 5326 5324 5323 5321 5319 5317 5315 5313 5311 5309 5308
5495 5490 5485 5481 5476 5472 5468 5465 5462 5459 5457 5454 5451 5449 5446 5443 5441 5438 5435 5432 5428 5425 5422 5418 5415 5413 5410 5408 5405 5403 5402 5400 5399 5398 5397 5396 5395 5394 5393 5393 5392 5391 5390 5389 5388 5387 5386 5385 5384 5382 5381 5379 5378 5376 5375 5373 5371 5369 5367 5365 5363 5361 5359 5357 5354 5352 5350 5347 5345 5342 5339 5337 5334 5331 5328 5325 5323 5321 5319 5318 5316 5314 5312 5310 5308 5306
5493 5488 5483 5479 5475 5471 5468 5464 5461 5458 5456 5453 5451 5448 5446 5443 5440 5437 5434 5431 5428 5424 5421 5418 5415 5412 5410 5408 5406 5404 5403 5401 5400 5399 5398 5397 5396 5395 5394 5393 5393 5391 5390 5389 5388 5388 5386 5385 5384 5383 5381 5380 5378 5377 5375 5373 5371 5369 5367 5364 5362 5360 5358 5356 5353 5351 5349 5347 5344 5342 5339 5337 5334 5331 5328 5325 5323 5320 5318 5317 5315 5313 5311 5309 5307 5305
5490 5485 5481 5477 5473 5470 5467 5463 5461 5458 5455 5453 5450 5448 5445 5442 5439 5437 5434 5431 5427 5424 5421 5418 5415 5412 5410 5408 5406 5405 5404 5403 5401 5400 5399 5398 5397 5396 5395 5394 5393 5392 5391 5390 5389 5388 5387 5386 5384 5383 5381 5380 5378 5377 5374 5373 5370 5368 5367 5364 5362 5360 5358 5355 5353 5351 5348 5346 5344 5342 5339 5337 5334 5331 5328 5325 5322 5319 5317 5316 5314 5312 5310 5308 5306 5304
5488 5483 5479 5476 5472 5469 5465 5463 5460 5457 5455 5452 5450 5447 5445 5442 5439 5436 5433 5430 5427 5423 5420 5417 5415 5413 5411 5409 5407 5406 5404 5403 5402 5401 5400 5399 5398 5397 5396 5395 5394 5393 5392 5391 5389 5388 5387 5386 5384 5383 5382 5380 5378 5376 5374 5372 5370 5368 5366 5364 5362 5360 5358 5355 5353 5350 5348 5346 5343 5341 5339 5337 5334 5332 5329 5325 5322 5319 5317 5314 5313 5311 5309 5307 5305 5303
5486 5482 5478 5474 5471 5468 5464 5462 5459 5457 5454 5452 5449 5447 5444 5442 5438 5435 5432 5429 5426 5423 5420 5417 5415 5413 5411 5409 5408 5407 5405 5404 5403 5402 5401 5400 5399 5398 5397 5395 5394 5393 5392 5391 5390 5388 5387 5386 5384 5383 5381 5380 5378 5375 5373 5372 5370 5368 5366 5364 5362 5360 5358 5356 5353 5350 5348 5345 5343 5340 5338 5336 5333 5331 5328 5325 5322 5319 5316 5314 5312 5310 5308 5306 5304 5303
5485 5481 5477 5473 5470 5467 5464 5461 5458 5456 5454 5452 5449 5446 5444 5441 5438 5435 5432 5428 5426 5423 5420 5418 5415 5413 5412 5410 5409 5408 5407 5405 5404 5403 5402 5401 5399 5398 5397 5396 5395 5394 5393 5391 5390 5388 5387 5386 5384 5383 5381 5379 5378 5376 5374 5372 5370 5368 5366 5364 5362 5360 5358 5356 5353 5350 5348 5345 5343 5340 5337 5335 5332 5330 5327 5324 5321 5318 5315 5313 5311 5309 5307 5305 5303 5302
5483 5479 5476 5473 5469 5466 5463 5461 5458 5456 5453 5451 5449 5446 5443 5440 5438 5434 5432 5428 5425 5423 5420 5418 5416 5414 5412 5411 5410 5408 5407 5406 5405 5404 5403 5401 5400 5399 5398 5397 5396 5394 5393 5392 5390 5389 5388 5386 5385 5383 5382 5380 5378 5376 5374 5372 5370 5368 5366 5364 5362 5360 5358 5356 5353 5350 5348 5345 5342 5339 5337 5334 5331 5329 5326 5323 5320 5318 5315 5313 5311 5309 5307 5305 5303 5301
5482 5478 5475 5471 5468 5465 5463 5460 5458 5455 5453 5451 5448 5446 5443 5440 5437 5434 5431 5428 5425 5423 5420 5418 5416 5414 5413 5412 5410 5409 5408 5407 5406 5404 5403 5402 5401 5399 5398 5397 5396 5395 5394 5392 5391 5389 5388 5387 5385 5384 5382 5380 5378 5376 5374 5372 5370 5368 5366 5364 5362 5360 5358 5356 5353 5350 5347 5344 5342 5339 5336 5333 5331 5328 5325 5322 5319 5317 5314 5312 5310 5309 5307 5304 5303 5301